> Flugplatz > 
Stacks Image 3
Aktuelle METAR Daten (Memmingen, Friedrichshafen, Laupheim):
2017/01/24 02:50 EDJA 241450Z 06004KT 2700 BR OVC004 M08/M10 Q1024
2017/01/24 02:50 EDNY 241450Z VRB02KT 6000 OVC012 M06/M08 Q1025
2017/01/24 02:20 ETHL 241420Z 08005KT 3200 -SNSG BR OVC008 M07/M08 Q1024 YLO YLO
Sicherheits- und Servicehinweise:

Bitte achten Sie beim Anflug auf mögliche Fall­schirm­springer auf der Nordseite des Platzes, kontaktieren Sie zur Sicherheit den Flugleiter auf Leutkirch INFO 122,875.

Zollabfertigung:
für Ein- und Ausflug bei Voranmeldung mindestens 3 Stunden, nur Personenverkehr – keine Warenabfertigung.

Günstig Tanken:
Avgas 100 II · Super 95 · Jet A1 · Diesel

Aktuelles:

Winterflugbetrieb vom 01.11.16 – 14.03.17:
Der Flugplatz ist bei Schneefall PPR 2 HR, die Flugleitung ist täglich mindestens von 10:00 bis 15:00 Uhr besetzt.
Am 25.12.16 und 01.01.17 ist der Flugplatz geschlossen.

Weitere Informationen finden Sie in unserem Newsbereich.

Nutzen Sie unsere Online-Anmeldung zur Zoll- und Passkontrolle.